EWG90Y EDDH-LGKO

Flight info

Callsign EWG90Y
Flight time N/A
Altitude 35000
Route RAMAR6G/33 RAMAR Z998 RATMO DCT HDO DCT ODLIV DCT BODAL DCT BEGLA DCT SVR/N0444F370 DCT BABIT DCT RIGMU DCT RISTU DCT INRES DCT GINAM DCT IBISI DCT SIN DCT RUGAS UN128 FSK DCT MES UN139 OKORO N139 LURUS L995 KOPAR
Aircraft A320/M-SDE3FGHIRWY/LB1

Departure

Time 2026-05-04 15:39
Airport Hamburg Helmut Schmidt Airport (EDDH)

Arrival

Time N/A
Airport Kos International Airport "Ippokratis" (LGKO)
Time Latitude Longitude Altitude Speed Heading
2026-05-04 15:19 53.62774 10.00276 49 ft 0 kts 62°
2026-05-04 15:32 53.62773 10.00274 49 ft 2 kts 62°
2026-05-04 15:33 53.62751 10.00204 44 ft 3 kts 63°
2026-05-04 15:34 53.62768 10.00138 47 ft 0 kts 153°
2026-05-04 15:36 53.62757 10.00147 45 ft 7 kts 153°
2026-05-04 15:36 53.62700 10.00198 49 ft 9 kts 152°
2026-05-04 15:37 53.62642 10.00248 49 ft 8 kts 152°
2026-05-04 15:37 53.62589 10.00252 48 ft 8 kts 211°
2026-05-04 15:37 53.62560 10.00172 47 ft 9 kts 243°
2026-05-04 15:37 53.62538 10.00074 48 ft 9 kts 265°
2026-05-04 15:38 53.62579 9.99993 47 ft 11 kts 332°
2026-05-04 15:38 53.62678 9.99908 46 ft 30 kts 333°
2026-05-04 15:38 53.63139 9.99507 46 ft 114 kts 332°
2026-05-04 15:38 53.64037 9.98727 106 ft 169 kts 333°
2026-05-04 15:39 53.65103 9.97857 892 ft 172 kts 333°
2026-05-04 15:39 53.66210 9.96927 1731 ft 182 kts 331°
2026-05-04 15:39 53.68681 9.94980 3241 ft 212 kts 340°
2026-05-04 15:40 53.70136 9.94582 4332 ft 215 kts 355°
2026-05-04 15:40 53.71677 9.94758 5189 ft 230 kts
2026-05-04 15:40 53.73230 9.95660 6134 ft 240 kts 26°
2026-05-04 15:40 53.74497 9.97631 6809 ft 267 kts 59°
2026-05-04 15:41 53.75299 10.00579 7363 ft 290 kts 66°
2026-05-04 15:41 53.76104 10.03766 8277 ft 299 kts 66°
2026-05-04 15:41 53.76928 10.07045 9267 ft 307 kts 66°
2026-05-04 15:41 53.77783 10.10407 10136 ft 319 kts 66°
2026-05-04 15:42 53.78749 10.13946 10592 ft 343 kts 63°
2026-05-04 15:42 53.79881 10.17657 11037 ft 365 kts 61°
2026-05-04 15:42 53.81090 10.21496 11797 ft 374 kts 61°
2026-05-04 15:42 53.82307 10.25423 12650 ft 380 kts 62°
2026-05-04 15:43 53.83463 10.29456 13481 ft 387 kts 68°
2026-05-04 15:43 53.84153 10.33893 14237 ft 394 kts 82°
2026-05-04 15:43 53.84224 10.38487 14973 ft 398 kts 96°
2026-05-04 15:43 53.83719 10.43104 15703 ft 402 kts 105°
2026-05-04 15:44 53.83071 10.47736 16445 ft 407 kts 105°
2026-05-04 15:44 53.82421 10.52441 17146 ft 413 kts 105°
2026-05-04 15:44 53.81767 10.57207 17852 ft 418 kts 105°
2026-05-04 15:44 53.81108 10.62022 18505 ft 423 kts 105°
2026-05-04 15:45 53.80385 10.66865 19092 ft 426 kts 111°
2026-05-04 15:45 53.79122 10.71316 19663 ft 425 kts 127°
2026-05-04 15:45 53.77198 10.75145 20260 ft 422 kts 140°
2026-05-04 15:45 53.76662 10.76043 20432 ft 423 kts 140°
2026-05-04 15:46 53.75035 10.78737 20929 ft 423 kts 141°
2026-05-04 15:46 53.72913 10.82202 21620 ft 425 kts 141°
2026-05-04 15:46 53.70773 10.85662 22251 ft 428 kts 141°
2026-05-04 15:46 53.68610 10.89145 22853 ft 431 kts 142°
2026-05-04 15:47 53.66432 10.92646 23440 ft 434 kts 142°
2026-05-04 15:47 53.64238 10.96176 23931 ft 438 kts 142°
2026-05-04 15:47 53.62026 10.99742 24379 ft 442 kts 142°
2026-05-04 15:47 53.59800 11.03334 24826 ft 445 kts 142°
2026-05-04 15:48 53.57584 11.06906 25274 ft 449 kts 142°
2026-05-04 15:48 53.55325 11.10545 25722 ft 452 kts 142°
2026-05-04 15:48 53.50751 11.17904 26601 ft 458 kts 142°
2026-05-04 15:49 53.48442 11.21600 27043 ft 461 kts 142°
2026-05-04 15:49 53.46105 11.25334 27451 ft 464 kts 143°
2026-05-04 15:49 53.43756 11.29072 27901 ft 466 kts 143°
2026-05-04 15:49 53.41397 11.32820 28319 ft 468 kts 143°
2026-05-04 15:50 53.39028 11.36581 28712 ft 471 kts 143°
2026-05-04 15:50 53.36654 11.40344 29090 ft 473 kts 143°
2026-05-04 15:50 53.34388 11.43933 29454 ft 476 kts 143°
2026-05-04 15:50 53.31852 11.47948 29917 ft 477 kts 143°
2026-05-04 15:51 53.29438 11.51768 30407 ft 476 kts 143°
2026-05-04 15:51 53.27040 11.55561 30872 ft 475 kts 143°
2026-05-04 15:51 53.24672 11.59296 31339 ft 474 kts 143°
2026-05-04 15:51 53.22283 11.63058 31819 ft 473 kts 143°
2026-05-04 15:52 53.19893 11.66814 32288 ft 471 kts 143°
2026-05-04 15:52 53.17505 11.70557 32766 ft 470 kts 143°
2026-05-04 15:52 53.15123 11.74279 33220 ft 469 kts 143°
2026-05-04 15:52 53.12745 11.77989 33703 ft 468 kts 143°
2026-05-04 15:53 53.10365 11.81699 34107 ft 469 kts 143°
2026-05-04 15:53 53.07980 11.85413 34468 ft 469 kts 143°
2026-05-04 15:53 53.05602 11.89113 34821 ft 469 kts 143°
2026-05-04 15:53 53.03219 11.92814 34946 ft 469 kts 143°
2026-05-04 15:54 52.98450 12.00199 34969 ft 468 kts 143°
2026-05-04 15:54 52.93711 12.07507 34967 ft 468 kts 143°
2026-05-04 15:55 52.88936 12.14850 34970 ft 468 kts 143°
2026-05-04 15:55 52.84158 12.22175 34962 ft 469 kts 143°
2026-05-04 15:56 52.79367 12.29501 34966 ft 469 kts 143°
2026-05-04 15:56 52.74573 12.36812 34965 ft 469 kts 143°
2026-05-04 15:57 52.69704 12.43913 34966 ft 463 kts 150°
2026-05-04 15:57 52.64563 12.49837 34961 ft 461 kts 152°
2026-05-04 15:58 52.59273 12.55834 34957 ft 461 kts 152°
2026-05-04 15:58 52.53985 12.61822 34931 ft 461 kts 151°
2026-05-04 15:59 52.48708 12.67809 34945 ft 461 kts 151°
2026-05-04 15:59 52.43427 12.73788 34948 ft 461 kts 151°
2026-05-04 16:00 52.38176 12.79699 34961 ft 461 kts 151°
2026-05-04 16:00 52.32893 12.85636 34959 ft 461 kts 151°
2026-05-04 16:01 52.27604 12.91561 34951 ft 460 kts 151°
2026-05-04 16:01 52.22331 12.97448 34950 ft 459 kts 151°
2026-05-04 16:02 52.17091 13.03283 34963 ft 458 kts 151°
2026-05-04 16:03 52.09204 13.12026 34965 ft 457 kts 151°
2026-05-04 16:03 52.03949 13.17836 34962 ft 457 kts 151°
2026-05-04 16:04 51.98695 13.23623 34937 ft 456 kts 151°